Weather in Stantsiya Chupa

Russia / Republic of Karelia     66°15′58″N   32°57′53″E
temp.,
°C
wind,
m/s
gust,
m/s
humid.,
%
clouds,
%
prec.,
mm/h
press.,
hPa
HPBL,
m
19 january, tue
tue1900:00−7w51291100 0.0 1006445
03:00−7w4119097 0.0 1006359
06:00−10w389350 0.0 1005180
09:00−11w369334 0.0 1006107
12:00−10w37920 0.0 1006142
15:00−10nw37940 0.0 1007146
18:00−11nnw36920 0.0 1009114
21:00−13nnw229342 0.0 101023
20 january, wed
wed2000:00−14nw23900 0.0 101147
03:00−14nnw23890 0.0 101339
06:00−14nnw23910 0.0 101223
09:00−15nnw23940 0.0 101422
12:00−15n229445 0.0 101522
15:00−15nne129663 0.0 101520
18:00−15ne229689 0.0 101643
21:00−15ene269595 0.0 1016165
21 january, thu
thu2100:00−15ne3895100 0.0 1016268
03:00−17ne379699 0.0 1016193
06:00−17ne399799 0.1 1015311
09:00−17ne41096100 0.1 1014386
12:00−16ne41094100 0.1 1014492
15:00−17ne51191100 0.1 1014582
18:00−18ne41194100 0.1 1014541
21:00−18ene4119399 0.1 1014596
22 january, fri
fri2200:00−18ene4109599 0.1 1014639
03:00−19ene51194100 0.1 1014582
06:00−19ene51195100 0.1 1013567
09:00−18ene51294100 0.1 1013640
12:00−16ene61193100 0.2 1014785
15:00−17ene61293100 0.4 1013751
18:00−17ene61294100 0.3 1013689
21:00−18ene61295100 0.6 1013587
23 january, sat
sat2300:00−18ne61295100 0.3 1014608
03:00−19ne61295100 0.6 1013541
06:00−19ne61396100 0.3 1012558
09:00−18ne61296100 0.5 1011537
12:00−14ene61294100 0.4 1011815
15:00−12e51192100 0.8 1009892
18:00−12e51194100 0.8 1008886
21:00−12e51194100 1.9 1006796